Kinloss, United Kingdom

8:59 PM BST on April 21, 2018 (GMT +0100)
Kinloss Air Base

Weather History for EGQK - March, 2013

Change the Weather History Date:

Saturday, March 9, 2013

  Actual Average Record
Temperature  
Mean Temperature 38 °F -  
Max Temperature 41 °F 48 °F 59 °F (2003)
Min Temperature 35 °F 36 °F 26 °F (2004)
Degree Days  
Heating Degree Days 27    
Moisture  
Dew Point 30 °F    
Average Humidity 70    
Maximum Humidity 87    
Minimum Humidity 49    
Precipitation  
Precipitation 0.01 in 0.06 in - ()
Sea Level Pressure  
Sea Level Pressure 29.94 in    
Wind  
Wind Speed 12 mph ()    
Max Wind Speed 22 mph    
Max Gust Speed -    
Visibility 8.1 miles    
Events Rain , Snow    
Averages and records for this station are not official NWS values.
T = Trace of Precipitation, MM = Missing Value Source: Averaged Metar Reports

Daily Weather History Graph

Daily Weather History Graph

Search for Another Location

Airport or City:

Astronomy

Mar. 09, 2013 Rise Set
Actual Time 6:46 AM GMT 6:04 PM GMT
Civil Twilight 6:07 AM GMT 6:42 PM GMT
Nautical Twilight 5:22 AM GMT 7:28 PM GMT
Astronomical Twilight 4:36 AM GMT 8:15 PM GMT
Moon 5:26 AM GMT (3/9) 3:30 PM GMT (3/9)
Length of Visible Light 12h 35m
Length of Day
11h 17m
Waning Crescent, 7% of the Moon is Illuminated
Mar 9
Waning Crescent
Mar 11
New
Mar 19
First Quarter
Mar 27
Full
Apr 3
Last Quarter

Hourly Weather History & Observations

Time (GMT) Temp. Windchill Dew Point Humidity Pressure Visibility Wind Dir Wind Speed Gust Speed Precip Events Conditions
12:50 AM 37.4 °F 29.3 °F 33.8 °F 87% 29.86 in 6.2 mi East 12.7 mph - N/A Rain Light Rain
1:50 AM 37.4 °F 31.4 °F 33.8 °F 87% 29.86 in 6.2 mi ENE 8.1 mph - N/A Rain Light Rain Showers
2:50 AM 37 °F - 33 °F 80% 29.86 in 19 mi East 10.4 mph - - Rain Light Rain
2:50 AM 37.4 °F 30.3 °F 33.8 °F 87% 29.86 in 6.2 mi East 10.4 mph - N/A Rain Light Rain
3:50 AM 37.4 °F 29.8 °F 33.8 °F 87% 29.86 in 6.2 mi ENE 11.5 mph - N/A Rain Light Rain
4:50 AM 37.4 °F 28.9 °F 33.8 °F 87% 29.86 in 6.2 mi East 13.8 mph - N/A Rain Light Rain
5:50 AM 37 °F - 33 °F 82% 29.88 in 7 mi East 13.8 mph - - Rain Light Rain
5:50 AM 37.4 °F 28.9 °F 33.8 °F 87% 29.86 in 6.2 mi East 13.8 mph - N/A Rain Light Rain
6:50 AM 37.4 °F 29.3 °F 33.8 °F 87% 29.86 in 6.2 mi East 12.7 mph - N/A   Mostly Cloudy
7:50 AM 37.4 °F 28.2 °F 32.0 °F 81% 29.89 in 6.2 mi East 16.1 mph - N/A   Mostly Cloudy
8:50 AM 39 °F - 32 °F 69% 29.91 in 12 mi East 16.1 mph - -   Scattered Clouds
8:50 AM 39.2 °F 30.5 °F 32.0 °F 75% 29.89 in 6.2 mi East 16.1 mph - N/A   Mostly Cloudy
9:50 AM 41.0 °F 32.5 °F 32.0 °F 70% 29.92 in 6.2 mi East 17.3 mph - N/A   Mostly Cloudy
10:50 AM 41.0 °F 31.9 °F 32.0 °F 70% 29.92 in 6.2 mi East 19.6 mph - N/A   Mostly Cloudy
11:50 AM 41 °F - 30 °F 53% 29.93 in 15 mi East 19.6 mph - -   Mostly Cloudy
11:50 AM 41.0 °F 31.9 °F 30.2 °F 65% 29.92 in 6.2 mi East 19.6 mph - N/A   Mostly Cloudy
12:50 PM 41.0 °F 32.2 °F 30.2 °F 65% 29.92 in 6.2 mi ENE 18.4 mph - N/A   Mostly Cloudy
1:50 PM 41.0 °F 31.4 °F 28.4 °F 61% 29.95 in 6.2 mi East 21.9 mph - N/A   Mostly Cloudy
2:50 PM 40 °F - 28 °F 51% 29.96 in 16 mi East 18.4 mph - -   Mostly Cloudy
2:50 PM 41.0 °F 32.2 °F 28.4 °F 61% 29.95 in 6.2 mi East 18.4 mph - N/A   Mostly Cloudy
3:50 PM 39.2 °F 29.8 °F 26.6 °F 61% 29.95 in 6.2 mi East 18.4 mph - N/A   Mostly Cloudy
4:50 PM 39.2 °F 30.5 °F 26.6 °F 61% 29.98 in 6.2 mi East 16.1 mph - N/A   Mostly Cloudy
5:50 PM 37 °F - 25 °F 50% 30.00 in 18 mi East 13.8 mph - -   Mostly Cloudy
5:50 PM 37.4 °F 28.9 °F 24.8 °F 60% 29.98 in 6.2 mi East 13.8 mph - N/A   Mostly Cloudy
6:50 PM 37.4 °F 30.8 °F 26.6 °F 65% 30.01 in 6.2 mi East 9.2 mph - N/A   Mostly Cloudy
7:50 PM 35.6 °F 29.2 °F 26.6 °F 70% 30.01 in 6.2 mi East 8.1 mph - N/A   Scattered Clouds
8:50 PM 35 °F - 26 °F 60% 30.03 in 16 mi East 4.6 mph - -   Mostly Cloudy
8:50 PM 35.6 °F 31.7 °F 26.6 °F 70% 30.01 in 6.2 mi East 4.6 mph - N/A   Mostly Cloudy
9:50 PM 35.6 °F 29.9 °F 26.6 °F 70% 30.04 in 6.2 mi NE 6.9 mph - N/A   Mostly Cloudy
10:50 PM 35.6 °F 25.5 °F 30.2 °F 81% 30.04 in 6.2 mi East 17.3 mph - N/A Snow Snow Grains
11:50 PM 36 °F - 24 °F 49% 30.06 in 22 mi ENE 17.3 mph - - Rain Drizzle
11:50 PM 35.6 °F 25.5 °F 24.8 °F 65% 30.04 in 6.2 mi ENE 17.3 mph - N/A   Mostly Cloudy